Terminal Aerodrome Forecast
Issued by NWS Charleston, WV

Current Version | Previous Version | Graphics & Text | Print | Product List | Glossary On
Versions: 1 2 3 4 5 6 7 8 9 10 11 12 13 14 15 16 17 18 19 20 21 22 23 24 25 26
000
FTUS41 KRLX 181700
TAFBKW
TAF
KBKW 181732Z 1818/1918 33004KT P6SM BKN080
     FM182100 35005KT P6SM SCT070
     FM190900 13004KT P6SM BKN010
     FM191100 13007KT 6SM -DZ BKN010=

USA.gov is the U.S. government's official web portal to all federal, state and local government web resources and services.